Showing default

ELARA 1, 64539

Orbit data source: Space-Track

ELARA 1, 64539 is a payload satellite owned by Gilmour Space (AU) in SSO that was launched on Mon, 23 Jun 2025 UTC via an FALCON 9 launch vehicle from the Air Force Western Test Range (AFWTR).

MMS-1 Satellite from Gilmour Space.

Loading next visibility...
Identifier
64539, 2025-135M
Orbit
SSO
Country
Flag of AUAU / AUS
Related business
Manufacturer
Gilmour Space
Mission
Operational Commercial Earth Obs Sci
Bus & Motor
ELARASAT, Unknown motor
Mass
100 kg wet, 100 kg dry
Launch date (UTC)
2025-06-23 (1 year ago)
Launch vehicle
FALCON 9
Launch site
Air Force Western Test Range (AFWTR)
Object type
Payload
Rocket body
Debris
Shape & HBR
Box, 0.3 m
Radar Cross Section
0.375 m², Medium (>0.1 m² and < 1m²)

Expand to show TLE details & history
Last TLE update: 13 hours ago

TLE from 13 hours ago
0 ELARA 1
1 64539U 25135M   26171.32475097  .00004077  00000-0  17691-3 0  9992
2 64539  97.4738 286.8341 0004104 145.7984 214.3518 15.22906126 55352
Epoch: 2026-06-20T07:47Z
TLE epoch observation values (Epoch: 2026-06-20T07:47:38.483Z)
Latitude
Longitude
-98.61725°
Altitude
502.503 km
Speed
7.612 km/s
True Right ascension
19h 07m 20s
True Declination
0° 00' 00"
Sunlit
Object was in full shadow at epoch
Visualization orbit readout
Latitude
Unknown
Longitude
Unknown
Altitude
Unknown
Speed
Unknown
Apparent Right ascension
Unknown
Apparent Declination
Unknown
Sunlit
N/A
Visualization observer readout
Local Sidereal Time
07:23:00
Azimuth
Unknown
Elevation
Unknown
Doppler factor
Unknown
Orbital elements
Apogee altitude
496.865 km
Perigee altitude
491.225 km
Semi-major axis
6,872.182 km
Eccentricity
0.00041
Inclination
97.4738°
RAAN
286.8341°
Arg. of periapsis
145.7984°
True anomaly
214.32527°
Mean anomaly
214.3518°
Eccentric anomaly
214.33854°
Mean motion
3.80979 °/min
Orbital period
94.49 mins
BSTAR
0.00017691
Loading maneuver chart data...
Computing Atmospheric mass density...
Loading historical data...
Loading historical data...
Loading historical data...
Loading historical data...
Loading historical data...
Loading historical data...
Loading historical data...

Documentation

Showing up to 5 results
|